Regional Weather Roundup
Issued by NWS Sioux Falls, SD

Home | Current Version | Previous Version | Graphics & Text | Print | Product List | Glossary On
Versions: 1 2 3 4 5 6 7 8 9 10 11 12 13 14 15 16 17 18 19 20 21 22 23 24 25 26 27 28 29 30 31 32 33 34 35 36 37 38 39 40 41 42 43 44 45 46 47 48 49 50
000
ASUS43 KFSD 212310
RWRFSD

WEATHER ROUNDUP FOR SE SOUTH DAKOTA/SW MINNESOTA/NW IOWA
NATIONAL WEATHER SERVICE SIOUX FALLS SD
600 PM CDT FRI JUL 21 2017

NOTE: "FAIR" INDICATES FEW OR NO CLOUDS BELOW 12,000 FEET WITH NO
SIGNIFICANT WEATHER AND OR OBSTRUCTIONS TO VISIBILITY.


SDZ038>040-050-052>070-220000-
SOUTHEAST SOUTH DAKOTA

CITY           SKY/WX    TMP DP  RH WIND       PRES   REMARKS
BROOKINGS      FAIR      84  72  67 S13       29.81F
CHAMBERLAIN    PTSUNNY   98  68  37 SE5       29.75F HX 103
HURON          PTSUNNY   89  72  56 SE12      29.75F HX  96
MADISON        FAIR      82  77  83 SE13      29.81F
MITCHELL       MOSUNNY   88  74  63 SE13      29.77F HX  96
SIOUX FALLS    PTSUNNY   83  75  77 SE13      29.80F
WINNER         FAIR     102  64  28 NW10      29.77F HX 105
YANKTON        FAIR      88  77  69 NE12      29.77S HX 100
$$

MNZ071-072-080-081-089-090-097-098-220000-
SOUTHWEST MINNESOTA

CITY           SKY/WX    TMP DP  RH WIND       PRES   REMARKS
FAIRMONT       FAIR      78  70  76 SE10      29.83F
JACKSON        FAIR      79  68  69 CALM      29.84F
LUVERNE        PTSUNNY   82  70  65 S8        29.81F
MARSHALL       FAIR      84  72  67 S14       29.80F
MONTEVIDEO     FAIR      88  73  62 S12       29.80S HX  96
PIPESTONE      FAIR      82  72  69 S10       29.83F
REDWOOD FALLS  FAIR      82  70  66 S16       29.81F
WINDOM         FAIR      79  68  69 SE13      29.84F
WORTHINGTON    PTSUNNY   79  73  83 E8G16     29.83F
$$

IAZ001>003-012>014-020>022-031-032-NEZ013-014-SDZ071-220000-
NORTHWEST IOWA

CITY           SKY/WX    TMP DP  RH WIND       PRES   REMARKS
CHEROKEE       FAIR      82  76  80 NE9       29.80F
DENISON        FAIR      91  79  66 S10G16    29.77F HX 107
ESTHERVILLE    FAIR      78  71  79 E7        29.83F
ORANGE CITY    FAIR      84  77  79 E8        29.80F
SHELDON        FAIR      82  75  78 E9        29.80F
SIOUX CITY     FAIR      90  80  72 E8        29.75F HX 107
SPENCER        CLOUDY    80  72  76 E12       29.83F
STORM LAKE     FAIR      77  75  94 E10       29.81F
$$

ABBREVIATIONS USED IN REMARKS
   TC - TEMPERATURE IN CELSIUS
  WCI - WIND CHILL INDEX
   HX - HEAT INDEX
  VSB - VISIBILITY





USA.gov is the U.S. government's official web portal to all federal, state and local government web resources and services.